N2XGL-1 Weather Reports


time (UTC)temp
C
wind
direction
speed
KPH
gust
KPH
rain 1hr
cm
rain 24hr
cm
rain mn
cm
humidity
%
barometer
mb
20260903125100 13 22 1.6 6.4 0.00 0.00 0.00 75 1003.7
20260903124126 13 45 3.2 6.4 0.00 0.00 0.00 76 1003.5
20260903123255 13 292 3.2 8.0 0.00 0.00 0.00 74 1003.5
20260903122445 13 68 4.8 14.5 0.00 0.00 0.00 76 1003.2
20260903121611 13 68 3.2 6.4 0.00 0.00 0.00 76 1003.2
20260903120700 13 90 3.2 8.0 0.00 0.00 0.00 77 1003.3
20260903115859 13 45 1.6 4.8 0.00 0.00 0.00 78 1003.3
20260903115050 13 270 1.6 4.8 0.00 0.00 0.00 77 1003.4
20260903114239 13 202 1.6 4.8 0.00 0.00 0.00 78 1003.2
20260903113435 13 0 0.0 1.6 0.00 0.00 0.00 77 1003.0
20260903111801 13 0 0.0 3.2 0.00 0.00 0.00 78 1003.1
20260903110921 13 0 0.0 3.2 0.00 0.00 0.00 78 1003.2
20260903105930 13 338 3.2 9.7 0.00 0.00 0.00 78 1003.1
20260903105121 13 180 1.6 9.7 0.00 0.00 0.00 79 1003.0
20260903104214 13 180 1.6 4.8 0.00 0.00 0.00 79 1003.0
20260903103216 13 0 1.6 3.2 0.00 0.00 0.00 78 1003.1
20260903102410 14 0 1.6 3.2 0.00 0.00 0.00 77 1003.1
20260903101525 14 292 3.2 8.0 0.00 0.00 0.00 76 1003.2
20260903100640 14 112 3.2 6.4 0.00 0.00 0.00 79 1003.3
20260903095725 14 0 0.0 3.2 0.00 0.00 0.00 79 1003.2
20260903094750 15 68 1.6 3.2 0.00 0.00 0.00 80 1003.1
20260903093909 15 68 3.2 4.8 0.00 0.00 0.00 81 1003.3
20260903093825 15 68 3.2 4.8 0.00 0.00 0.00 81 1003.3
20260903092830 15 0 0.0 1.6 0.00 0.00 0.00 79 1003.4
20260903091846 15 0 1.6 3.2 0.00 0.00 0.00 80 1003.2
20260903090941 15 0 0.0 1.6 0.00 0.00 0.00 80 1003.2
20260903090006 15 135 1.6 4.8 0.00 0.00 0.00 79 1003.0
20260903085035 15 158 1.6 3.2 0.00 0.00 0.00 79 1002.9
20260903084055 15 0 0.0 1.6 0.00 0.00 0.00 78 1002.9
20260903083105 15 270 1.6 3.2 0.00 0.00 0.00 77 1002.9
20260903081537 16 248 1.6 3.2 0.00 0.00 0.00 74 1003.0
20260903081300 16 248 1.6 3.2 0.00 0.00 0.00 74 1003.0
20260903080340 16 0 0.0 1.6 0.00 0.00 0.00 74 1002.9
20260903075346 16 0 0.0 3.2 0.00 0.00 0.00 74 1003.0
20260903074350 16 0 0.0 0.0 0.00 0.00 0.00 72 1002.8
20260903073425 16 0 0.0 0.0 0.00 0.00 0.00 73 1002.9
20260903072510 17 0 0.0 1.6 0.00 0.00 0.00 74 1003.0
20260903071531 17 248 1.6 3.2 0.00 0.00 0.00 74 1003.1
20260903070720 17 270 1.6 3.2 0.00 0.00 0.00 74 1003.1
20260903065848 17 248 3.2 6.4 0.00 0.00 0.00 74 1003.2
20260903065730 17 248 3.2 6.4 0.00 0.00 0.00 74 1003.2
20260903064930 18 180 1.6 3.2 0.00 0.00 0.00 74 1003.1
20260903064025 18 0 0.0 1.6 0.00 0.00 0.00 74 1003.3
20260903063215 18 158 1.6 4.8 0.00 0.00 0.00 74 1003.4
20260903062345 18 158 3.2 4.8 0.00 0.00 0.00 72 1003.2
20260903061435 18 270 1.6 3.2 0.00 0.00 0.00 72 1002.8
20260903060613 18 0 0.0 1.6 0.00 0.00 0.00 71 1002.8
20260903055646 18 0 0.0 1.6 0.00 0.00 0.00 68 1003.0
20260903054830 18 270 1.6 3.2 0.00 0.00 0.00 67 1002.9
20260903053950 18 0 0.0 3.2 0.00 0.00 0.00 68 1003.2
20260903053140 18 270 1.6 3.2 0.00 0.00 0.00 68 1003.3
20260903052150 18 270 1.6 3.2 0.00 0.00 0.00 67 1003.6
20260903051307 18 0 0.0 1.6 0.00 0.00 0.00 67 1003.4
20260903050411 18 338 1.6 3.2 0.00 0.00 0.00 68 1003.4
20260903045501 18 270 1.6 4.8 0.00 0.00 0.00 68 1003.9
20260903044645 18 270 1.6 4.8 0.00 0.00 0.00 69 1003.7
20260903043730 18 0 0.0 1.6 0.00 0.00 0.00 67 1003.8
20260903042855 19 270 3.2 4.8 0.00 0.00 0.00 67 1003.9
20260903041938 20 270 1.6 4.8 0.00 0.00 0.00 62 1003.8
20260903041111 20 248 3.2 6.4 0.00 0.00 0.00 60 1003.7
20260903040150 20 270 1.6 3.2 0.00 0.00 0.00 59 1003.3
20260903035225 20 22 1.6 3.2 0.00 0.00 0.00 59 1003.0
20260903034356 21 112 4.8 6.4 0.00 0.00 0.00 58 1003.5
20260903033430 21 135 4.8 11.3 0.00 0.00 0.00 60 1003.7
20260903032545 21 135 3.2 4.8 0.00 0.00 0.00 58 1003.5
20260903031722 21 0 1.6 4.8 0.00 0.00 0.00 55 1002.8
20260903030750 21 0 4.8 11.3 0.00 0.00 0.00 56 1002.7
20260903025840 21 0 6.4 14.5 0.00 0.00 0.00 56 1002.8
20260903024845 22 0 4.8 14.5 0.00 0.00 0.00 55 1002.8
20260903023851 22 0 3.2 6.4 0.00 0.00 0.00 53 1002.8
20260903023010 22 22 4.8 8.0 0.00 0.00 0.00 52 1002.6
20260903022111 22 0 6.4 17.7 0.00 0.00 0.00 51 1002.6
20260903021236 23 0 4.8 11.3 0.00 0.00 0.00 50 1002.7
20260903015600 23 0 6.4 14.5 0.00 0.00 0.00 49 1002.5
20260903014615 23 22 4.8 9.7 0.00 0.00 0.00 48 1002.3
20260903013815 23 0 8.0 19.3 0.00 0.00 0.00 47 1002.1
20260903012925 24 0 6.4 11.3 0.00 0.00 0.00 46 1002.1
20260903012020 24 0 6.4 9.7 0.00 0.00 0.00 45 1002.0
20260903011116 25 22 4.8 6.4 0.00 0.00 0.00 44 1002.0
20260903010155 25 0 4.8 9.7 0.00 0.00 0.00 44 1001.8
20260903005354 25 0 4.8 11.3 0.00 0.00 0.00 43 1002.0
20260903005310 25 0 4.8 11.3 0.00 0.00 0.00 43 1002.0
20260903004326 26 0 3.2 6.4 0.00 0.00 0.00 42 1002.0
20260903003355 26 0 8.0 14.5 0.00 0.00 0.00 42 1002.0
20260903002541 26 0 6.4 12.9 0.00 0.00 0.00 41 1001.9
20260903001740 26 0 3.2 8.0 0.00 0.00 0.00 41 1001.8
20260903000010 26 270 6.4 14.5 0.00 0.00 0.00 41 1001.7
20260902235205 26 292 9.7 19.3 0.00 0.00 0.00 41 1001.9
20260902233305 25 248 16.1 24.1 0.00 0.00 0.00 44 1002.4
20260902232320 26 270 20.9 41.8 0.00 0.00 0.00 44 1002.5
20260902231430 28 270 16.1 41.8 0.00 0.00 0.00 36 1002.3
20260902230545 28 158 4.8 9.7 0.00 0.00 0.00 34 1001.8
20260902225610 28 180 1.6 6.4 0.00 0.00 0.00 35 1001.4
20260902224616 28 112 4.8 17.7 0.00 0.00 0.00 31 1001.2
20260902223815 29 112 4.8 9.7 0.00 0.00 0.00 33 1001.0
20260902222846 29 112 6.4 16.1 0.00 0.00 0.00 29 1000.9
20260902221900 29 90 4.8 16.1 0.00 0.00 0.00 31 1000.8
20260902220945 30 112 6.4 14.5 0.00 0.00 0.00 30 1001.1
20260902220135 30 90 4.8 14.5 0.00 0.00 0.00 29 1001.2
20260902215246 31 135 6.4 16.1 0.00 0.00 0.00 31 1001.3
20260902214410 31 158 4.8 12.9 0.00 0.00 0.00 27 1001.4
20260902213421 32 158 8.0 19.3 0.00 0.00 0.00 28 1001.5
20260902212605 32 180 8.0 16.1 0.00 0.00 0.00 28 1001.5
20260902211636 31 158 6.4 20.9 0.00 0.00 0.00 29 1001.6
20260902210831 31 112 4.8 11.3 0.00 0.00 0.00 28 1001.8
20260902210016 31 135 9.7 20.9 0.00 0.00 0.00 27 1002.1
20260902205211 31 90 9.7 20.9 0.00 0.00 0.00 32 1002.1
20260902204225 31 112 6.4 17.7 0.00 0.00 0.00 28 1002.3
20260902202550 31 68 8.0 17.7 0.00 0.00 0.00 28 1002.6
20260902201610 31 135 4.8 14.5 0.00 0.00 0.00 29 1002.7
20260902200735 31 158 4.8 11.3 0.00 0.00 0.00 29 1003.0
20260902195837 31 135 4.8 9.7 0.00 0.00 0.00 25 1003.0
20260902194945 30 90 8.0 17.7 0.00 0.00 0.00 30 1003.2
20260902194040 30 90 8.0 22.5 0.00 0.00 0.00 30 1003.2
20260902193100 30 45 6.4 14.5 0.00 0.00 0.00 28 1003.4
20260902192255 30 68 6.4 16.1 0.00 0.00 0.00 30 1003.4
20260902191345 30 68 3.2 8.0 0.00 0.00 0.00 28 1003.7
20260902190526 30 158 6.4 20.9 0.00 0.00 0.00 31 1003.8
20260902185545 30 112 6.4 14.5 0.00 0.00 0.00 30 1003.9
20260902184625 30 158 3.2 8.0 0.00 0.00 0.00 29 1004.1
20260902183654 30 158 6.4 11.3 0.00 0.00 0.00 33 1004.4
20260902182750 29 112 6.4 19.3 0.00 0.00 0.00 33 1004.6
20260902181806 29 135 8.0 20.9 0.00 0.00 0.00 32 1004.8
20260902180815 29 112 8.0 14.5 0.00 0.00 0.00 29 1005.0
20260902180007 29 135 6.4 20.9 0.00 0.00 0.00 32 1005.2
20260902175206 29 135 6.4 20.9 0.00 0.00 0.00 30 1005.3
20260902174406 28 112 8.0 17.7 0.00 0.00 0.00 32 1005.5
20260902173525 28 68 4.8 14.5 0.00 0.00 0.00 31 1005.5
20260902172621 28 180 4.8 9.7 0.00 0.00 0.00 32 1005.7
20260902171631 27 112 6.4 16.1 0.00 0.00 0.00 34 1005.7
20260902170706 27 90 4.8 9.7 0.00 0.00 0.00 35 1005.9
20260902165710 27 158 3.2 8.0 0.00 0.00 0.00 39 1006.0
20260902164750 27 158 3.2 9.7 0.00 0.00 0.00 37 1006.1
20260902163759 26 135 3.2 11.3 0.00 0.00 0.00 40 1006.2
20260902162956 25 180 3.2 8.0 0.00 0.00 0.00 46 1006.3
20260902162010 24 158 4.8 9.7 0.00 0.00 0.00 45 1006.2
20260902161112 23 158 3.2 6.4 0.00 0.00 0.00 46 1006.3
20260902160255 23 180 3.2 6.4 0.00 0.00 0.00 46 1006.5
20260902155457 23 202 3.2 6.4 0.00 0.00 0.00 50 1006.6
20260902155335 23 202 3.2 6.4 0.00 0.00 0.00 50 1006.6
20260902154455 22 225 1.6 6.4 0.00 0.00 0.00 52 1006.5
20260902152536 22 180 3.2 6.4 0.00 0.00 0.00 55 1006.4
20260902151555 21 158 3.2 6.4 0.00 0.00 0.00 55 1006.3
20260902150659 20 158 1.6 3.2 0.00 0.00 0.00 61 1006.3
20260902145751 18 180 1.6 3.2 0.00 0.00 0.00 63 1006.2
20260902144925 16 225 1.6 3.2 0.00 0.00 0.00 66 1006.3
20260902144105 16 158 1.6 3.2 0.00 0.00 0.00 69 1006.2
20260902143200 15 0 0.0 1.6 0.00 0.00 0.00 75 1006.4
20260902142241 15 270 1.6 3.2 0.00 0.00 0.00 76 1006.3
20260902141311 14 202 1.6 6.4 0.00 0.00 0.00 77 1006.3
20260902140505 14 270 1.6 3.2 0.00 0.00 0.00 82 1006.2
20260902135505 13 270 1.6 4.8 0.00 0.00 0.00 82 1006.1
20260902134705 13 135 1.6 3.2 0.00 0.00 0.00 83 1006.1
20260902133725 13 158 3.2 3.2 0.00 0.00 0.00 82 1006.2
20260902132845 12 135 1.6 3.2 0.00 0.00 0.00 79 1006.0
20260902131905 12 248 1.6 3.2 0.00 0.00 0.00 77 1006.0
20260902131000 13 0 0.0 3.2 0.00 0.00 0.00 77 1005.8
20260902130040 13 315 1.6 4.8 0.00 0.00 0.00 76 1005.8
20260902125226 13 45 1.6 3.2 0.00 0.00 0.00 77 1005.6